[[{"header":{"parameterUnit":"m.s-1","parameterCategory":1,"la1":30.2991,"la2":30.254,"lo1":-89.0895,"lo2":-89.0444,"dy":0.0017,"dx":0.0017,"nx":28,"ny":28,"refTime":"2024-06-25T09:00:00:Z","depth":0,"parameterNumber":2,"parameterNumberName":"U-component_of_WINDS"},"data":[0,0,0,0,0,0,0,0,0,0,0,0,0,0,0,0,0,0,0,0,0,0,0,0,0,0,0,0,0,0,0,0,0,0,0,0,0,0,0,0,0,0,0,0,0,0,0,0,0,0,0,0,0,0,0,0,0,0,3.3685,3.3686,0,3.3787,3.3789,3.379,3.3718,3.3715,3.3712,3.3709,3.3825,3.3831,3.3837,0,0,0,0,0,0,0,0,0,0,0,0,0,3.3436,3.3441,3.3685,3.3686,3.3687,3.3787,3.3789,3.379,3.3719,3.3715,3.3711,3.3707,3.3823,3.383,3.3837,0,0,0,0,0,0,0,0,0,0,0,0,0,3.3542,3.3443,3.3684,3.3663,3.3662,3.3787,3.3789,3.379,3.372,3.3715,3.371,3.3705,3.382,3.3829,3.3838,3.3992,0,0,3.3866,3.387,0,0,0,0,0,0,0,0,3.3536,3.3551,3.3665,3.3665,3.3664,3.3735,3.3743,3.3858,3.3721,3.3698,3.3709,3.3703,3.3799,3.381,3.384,3.3998,3.4002,3.3867,3.3873,3.3877,3.3879,0,0,0,0,0,0,0,3.3529,3.3547,3.3726,3.3667,3.3667,3.3652,3.3662,3.3765,3.3775,3.37,3.3695,3.3707,3.3798,3.3832,3.3842,3.4004,3.3867,3.3875,3.3881,3.3884,3.4293,3.4298,0,0,0,0,0,0,3.3522,3.3541,3.3722,3.3729,3.3587,3.366,3.3671,3.3717,3.3774,3.3778,3.3712,3.3704,3.3818,3.3832,3.3846,3.4031,3.3876,3.3885,3.389,3.4288,3.4294,3.43,0,0,0,0,0,0,3.3517,3.3539,3.3718,3.3633,3.3655,3.367,3.3722,3.3722,3.3755,3.3782,3.3785,3.3743,3.3815,3.3833,3.3956,3.4034,3.3889,3.3897,3.4282,3.429,3.4297,3.44,0,0,0,0,0,0,3.351,3.3538,3.3594,3.3635,3.366,3.3824,3.3727,3.3727,3.377,3.3761,3.3813,3.3817,3.3813,3.3942,3.3965,3.4044,3.3905,3.4275,3.4285,3.4295,3.439,3.4411,3.4429,0,0,0,0,0,3.3502,3.3621,3.3597,3.362,3.373,3.3828,3.3843,3.3832,3.3776,3.3835,3.3852,3.3815,3.4021,3.3955,3.398,3.4063,3.427,3.4282,3.4294,3.4381,3.4407,3.4428,0,0,0,0,0,0,3.3594,3.3626,3.36,3.3736,3.3779,3.3816,3.3889,3.3859,3.3922,3.3912,3.3899,3.3912,3.404,3.4063,3.399,3.4215,3.4137,3.4155,3.4195,3.4219,3.4238,3.4231,3.3912,0,0,0,0,0,3.3629,3.3702,3.3728,3.3846,3.3868,3.3875,3.3917,3.3905,3.3951,3.397,3.3996,3.4045,3.412,3.4171,3.4242,3.4392,3.4404,3.4461,3.4481,3.4496,3.4513,3.4594,3.4621,3.434,3.434,3.434,0,0,3.3704,3.3731,3.3779,3.3865,3.3897,3.3976,3.3891,3.3979,3.4038,3.3984,3.4101,3.4122,3.4175,3.4312,3.4374,3.4336,3.4592,3.4512,3.4524,3.4532,3.461,3.4636,3.466,3.4348,3.4347,3.4345,0,0,3.3882,3.3909,3.4009,3.4042,3.409,3.4094,3.4118,3.4158,3.4169,3.4285,3.4246,3.4318,3.4448,3.4487,3.4525,3.4715,3.4684,3.4739,3.4841,3.4921,3.4943,3.4963,3.5032,3.5057,3.4755,3.4755,3.4755,0,3.3971,3.4085,3.4066,3.4156,3.4196,3.4146,3.425,3.4284,3.4354,3.4384,3.4339,3.45,3.4533,3.4679,3.4725,3.4756,3.4786,3.4734,3.4941,3.496,3.4978,3.5045,3.507,3.4761,3.4761,3.476,3.4759,0,3.4192,3.4272,3.4349,3.4413,3.4462,3.4558,3.4557,3.4608,3.4592,3.46,3.472,3.4756,3.4833,3.4867,3.4853,3.5011,3.4986,3.4941,3.4863,3.5012,3.5074,3.5099,3.477,3.4768,3.4766,3.4765,0,0,3.4434,3.4484,3.4513,3.4542,3.459,3.4654,3.4748,3.482,3.4865,3.4915,3.4996,3.5106,3.5064,3.5107,3.5097,3.5167,3.5316,3.5113,3.5114,3.5151,3.5494,3.5529,3.5558,3.5295,3.5299,3.5303,3.549,0,3.4615,3.4776,3.4761,3.4916,3.4991,3.4944,3.5027,3.5067,3.5077,3.5145,3.5157,3.5236,3.5174,3.5199,3.5266,3.5284,3.5386,3.527,3.5373,3.5377,3.5363,3.559,3.5627,3.5802,3.5514,3.5518,3.5521,0,3.4848,3.4902,3.5063,3.5099,3.513,3.5205,3.5269,3.5333,3.5378,3.5381,3.5427,3.5404,3.5503,3.542,3.5556,3.5478,3.5519,3.5534,3.5541,3.5552,3.546,3.5609,3.5857,3.5884,3.5559,3.5556,3.5553,0,3.501,3.5123,3.5234,3.526,3.5305,3.5358,3.538,3.542,3.5464,3.5521,3.555,3.5619,3.5658,3.5713,3.5711,3.565,3.585,3.5767,3.5857,3.5857,3.5903,3.5901,3.6163,3.5927,3.5926,3.5926,3.5925,0,3.5215,3.5316,3.5307,3.5375,3.5487,3.547,3.5583,3.5599,3.5634,3.5707,3.5671,3.5741,3.5733,3.5804,3.5803,3.5916,3.5934,3.5941,3.594,3.5945,3.5945,3.5974,3.5962,3.5933,3.5931,3.593,3.5929,0,3.5415,3.5413,3.5531,3.5562,3.5572,3.5654,3.5682,3.5748,3.5754,3.5847,3.5868,3.5879,3.596,3.5962,3.6057,3.6056,3.6195,3.618,3.6179,3.6177,3.6267,3.6259,3.6559,3.6598,3.6335,3.6338,3.634,0,3.5547,3.5623,3.5662,3.5706,3.573,3.5802,3.5846,3.5832,3.5879,3.5935,3.5996,3.6072,3.6133,3.6266,3.6285,3.6357,3.6344,3.6444,3.6355,3.6358,3.6347,3.6343,3.6351,3.6462,3.6465,3.6468,3.647,0,3.5783,3.5777,3.5839,3.5901,3.5953,3.6003,3.6048,3.6087,3.6079,3.6134,3.6215,3.6262,3.6356,3.6434,3.6503,3.6529,3.65,3.6497,3.6522,3.6529,3.6526,3.653,3.6228,3.6491,3.6489,3.6487,3.6486,3.6485,3.5954,3.6019,3.6055,3.6126,3.6158,3.6201,3.6264,3.6276,3.6342,3.6416,3.6404,3.6494,3.6538,3.6627,3.6658,3.673,3.6696,3.6732,3.6742,3.6751,3.6761,3.6512,3.6743,3.6742,3.6742,3.6741,3.6741,0,3.6188,3.6208,3.6273,3.6336,3.6392,3.6354,3.6402,3.6453,3.6532,3.6573,3.6632,3.6725,3.68,3.6823,3.6896,3.695,3.6938,3.6969,3.6967,3.6973,3.6787,3.6759,3.6978,3.6978,3.6978,3.6977,3.6977,3.6977,3.6317,3.6425,3.6424,3.6548,3.6568,3.6654,3.6684,3.6725,3.6757,3.6861,3.6922,3.6934,3.6969,3.7044,3.7111,3.7116,3.7146,3.7183,3.7183,3.701,3.6986,3.6964,3.6937,3.7189,3.719,3.7363,3.7364,3.7365]},{"header":{"parameterUnit":"m.s-1","parameterCategory":1,"la1":30.2991,"la2":30.254,"lo1":-89.0895,"lo2":-89.0444,"dy":0.0017,"dx":0.0017,"nx":28,"ny":28,"refTime":"2024-06-25T09:00:00:Z","depth":0,"parameterNumber":3,"parameterNumberName":"V-component_of_WINDS"},"data":[0,0,0,0,0,0,0,0,0,0,0,0,0,0,0,0,0,0,0,0,0,0,0,0,0,0,0,0,0,0,0,0,0,0,0,0,0,0,0,0,0,0,0,0,0,0,0,0,0,0,0,0,0,0,0,0,0,0,3.2194,3.2195,0,3.2261,3.2262,3.2262,3.2251,3.225,3.2249,3.2247,3.2312,3.2315,3.2318,0,0,0,0,0,0,0,0,0,0,0,0,0,3.205,3.2052,3.2194,3.2195,3.2195,3.2261,3.2262,3.2263,3.2251,3.225,3.2248,3.2247,3.2311,3.2314,3.2318,0,0,0,0,0,0,0,0,0,0,0,0,0,3.2114,3.2053,3.2194,3.2198,3.2199,3.2261,3.2262,3.2263,3.2251,3.225,3.2248,3.2246,3.231,3.2314,3.2318,3.2379,0,0,3.2331,3.2333,0,0,0,0,0,0,0,0,3.211,3.2119,3.2196,3.2198,3.2199,3.2246,3.2234,3.2302,3.2252,3.2231,3.2247,3.2245,3.2291,3.2297,3.2313,3.2382,3.2385,3.2331,3.2334,3.2336,3.2337,0,0,0,0,0,0,0,3.2106,3.2116,3.222,3.2197,3.2199,3.2194,3.2201,3.2247,3.227,3.2233,3.2232,3.2241,3.2291,3.2309,3.2314,3.2386,3.2331,3.2335,3.2338,3.2339,3.2504,3.2505,0,0,0,0,0,0,3.2101,3.2113,3.2218,3.2222,3.2149,3.2198,3.2206,3.2232,3.227,3.2274,3.2242,3.224,3.2303,3.231,3.2317,3.2388,3.2336,3.234,3.2342,3.2502,3.2504,3.2506,0,0,0,0,0,0,3.2098,3.211,3.2215,3.2167,3.218,3.2202,3.2232,3.2235,3.2252,3.2276,3.228,3.2256,3.2302,3.2311,3.2363,3.239,3.2342,3.2345,3.25,3.2503,3.2505,3.2532,0,0,0,0,0,0,3.2094,3.2109,3.2134,3.2168,3.2183,3.2262,3.2234,3.2237,3.226,3.2258,3.2291,3.2294,3.2301,3.2357,3.2367,3.2395,3.2349,3.2497,3.2501,3.2504,3.2529,3.2535,3.2541,0,0,0,0,0,3.2089,3.2139,3.2136,3.2149,3.2215,3.2264,3.2272,3.228,3.2262,3.2286,3.2301,3.2293,3.2385,3.2362,3.2374,3.2403,3.2496,3.25,3.2504,3.2526,3.2534,3.2541,0,0,0,0,0,0,3.2108,3.2144,3.214,3.2204,3.2231,3.2262,3.2293,3.2289,3.2321,3.2317,3.2324,3.2332,3.2384,3.2399,3.2372,3.2462,3.2438,3.2444,3.245,3.2458,3.2464,3.2459,3.2352,0,0,0,0,0,3.2119,3.2158,3.2187,3.224,3.2254,3.2271,3.2293,3.2296,3.2324,3.2335,3.2354,3.238,3.2415,3.2437,3.2471,3.2531,3.2536,3.2556,3.2562,3.2567,3.2572,3.2602,3.261,3.252,3.252,3.252,0,0,3.2144,3.2168,3.2192,3.2244,3.2266,3.2303,3.2281,3.2322,3.2349,3.2341,3.2391,3.2406,3.2435,3.2491,3.2516,3.2505,3.2599,3.2572,3.2576,3.2579,3.2607,3.2616,3.2623,3.2523,3.2522,3.2522,0,0,3.2207,3.223,3.2275,3.2297,3.233,3.2341,3.2352,3.2383,3.2392,3.2443,3.2437,3.2468,3.2529,3.2549,3.2567,3.2634,3.2627,3.2645,3.2676,3.2705,3.2712,3.2718,3.274,3.2748,3.265,3.265,3.265,0,3.2232,3.229,3.2299,3.234,3.2362,3.2357,3.2401,3.2421,3.2463,3.2477,3.2464,3.2537,3.2557,3.2615,3.2631,3.2647,3.2657,3.2641,3.2711,3.2717,3.2723,3.2743,3.2752,3.2652,3.2652,3.2652,3.2652,0,3.2319,3.2359,3.2391,3.2432,3.2457,3.25,3.2512,3.2536,3.2537,3.2548,3.2597,3.2621,3.2657,3.2671,3.2673,3.2729,3.2721,3.2709,3.2685,3.2733,3.2752,3.2761,3.2655,3.2654,3.2654,3.2653,0,0,3.2397,3.244,3.2451,3.2468,3.2503,3.2533,3.2574,3.261,3.2629,3.2658,3.269,3.274,3.2729,3.2749,3.2752,3.2778,3.2826,3.2762,3.2763,3.2771,3.2887,3.2894,3.2903,3.2822,3.2823,3.2825,3.2883,0,3.2461,3.2535,3.2542,3.2607,3.2642,3.2636,3.2671,3.2695,3.2706,3.2736,3.2747,3.2782,3.2766,3.2777,3.2802,3.2815,3.2849,3.2811,3.285,3.2851,3.2841,3.2914,3.2922,3.2977,3.2891,3.2892,3.2893,0,3.2547,3.2577,3.2646,3.2673,3.2688,3.272,3.2752,3.2781,3.2807,3.2813,3.2834,3.2833,3.2872,3.2847,3.29,3.2874,3.289,3.2898,3.29,3.2903,3.2874,3.2916,3.2995,3.3002,3.2906,3.2905,3.2904,0,3.2593,3.2652,3.2699,3.2714,3.2748,3.277,3.2784,3.2808,3.2829,3.2856,3.2869,3.2901,3.2917,3.2941,3.2947,3.2929,3.2998,3.2974,3.3002,3.3002,3.3016,3.3015,3.3096,3.303,3.303,3.3029,3.3029,0,3.2664,3.2705,3.272,3.275,3.2795,3.2802,3.2846,3.2859,3.288,3.2909,3.2906,3.2934,3.2941,3.297,3.2975,3.3016,3.3024,3.3028,3.3028,3.3027,3.3026,3.3037,3.3033,3.3032,3.3031,3.3031,3.303,0,3.2723,3.2736,3.2787,3.2814,3.2821,3.2853,3.2875,3.2902,3.2912,3.2949,3.2958,3.2973,3.3006,3.3015,3.3054,3.3057,3.3105,3.3103,3.3097,3.3096,3.3122,3.3119,3.3212,3.3223,3.3151,3.3152,3.3152,0,3.2767,3.2798,3.2828,3.2848,3.2864,3.2897,3.2917,3.2924,3.2945,3.2975,3.2997,3.303,3.3056,3.3109,3.3122,3.3151,3.3148,3.3179,3.3152,3.3149,3.3146,3.3143,3.3145,3.3183,3.3184,3.3184,3.3185,0,3.2841,3.2845,3.2876,3.2907,3.2932,3.2957,3.2981,3.2998,3.3007,3.3031,3.3065,3.3085,3.3125,3.3156,3.3185,3.3198,3.3192,3.3193,3.3201,3.3199,3.3193,3.3194,3.3108,3.3191,3.319,3.319,3.3189,3.3189,3.2893,3.2919,3.2944,3.2977,3.2996,3.3018,3.3043,3.3056,3.3085,3.3118,3.312,3.3156,3.3177,3.3216,3.323,3.3257,3.3247,3.3259,3.3261,3.3264,3.3265,3.319,3.3262,3.3262,3.3262,3.3262,3.3262,0,3.2965,3.298,3.301,3.3044,3.3069,3.3063,3.3088,3.3109,3.3141,3.3162,3.3188,3.3225,3.3255,3.327,3.3299,3.3317,3.3315,3.3324,3.3322,3.3324,3.3273,3.3262,3.3325,3.3325,3.3325,3.3325,3.3325,3.3325,3.3005,3.3049,3.3055,3.3107,3.3122,3.3158,3.3172,3.3191,3.3208,3.325,3.3275,3.3285,3.3302,3.3332,3.3358,3.3362,3.3371,3.3381,3.3383,3.3335,3.3328,3.3322,3.3312,3.3384,3.3384,3.3432,3.3433,3.3433]}]]